Weather in Mamaya

Romania     44°13′11″N   28°37′43″E
temp.,
°C
wind,
m/s
gust,
m/s
humid.,
%
clouds,
%
prec.,
mm/h
press.,
hPa
HPBL,
m
5 august, thu
thu500:00+26s68820 0.0 1014448
03:00+26s68840 0.0 1013434
06:00+25s55855 0.1 1013367
09:00+26s44814 0.2 1012333
12:00+26sse77815 0.0 1012440
15:00+27sse99814 0.0 1010422
18:00+27sse911825 0.0 1008466
21:00+27sse913820 0.0 1007435
6 august, fri
fri600:00+27ssw7108292 0.0 1007559
03:00+26se69864 0.0 1005517
06:00+26sse8118793 0.0 1004483
09:00+27s7982100 0.0 1004537
12:00+28sse2271100 0.0 1003179
15:00+28se3363100 0.3 1003123
18:00+27e5575100 0.0 1002135
21:00+27ese2280100 0.0 100339
7 august, sat
sat700:00+26wnw1176100 0.6 100521
03:00+24n101368100 1.3 1005433
06:00+23nnw81168100 0.1 1008431
09:00+23n9106974 0.1 1010581
12:00+23n9106625 0.0 1010793
15:00+27nne795112 0.0 1010719
18:00+28nne57520 0.0 1011339
21:00+26n47560 0.0 1011164
8 august, sun
sun800:00+25nne56630 0.0 1013186
03:00+25nne67570 0.0 1014346
06:00+24nne78560 0.0 1014438
09:00+25ne67560 0.0 1016505
12:00+25ene45600 0.0 1017446
15:00+26e335678 0.0 1016400
18:00+26ese555910 0.0 1016337
21:00+26ese45630 0.0 1016302
9 august, mon
mon900:00+25sse22610 0.0 1017194
03:00+24w22630 0.0 1016106
06:00+24nnw22630 0.0 1016104
09:00+25ne23590 0.0 1017234
12:00+26e33570 0.0 1017281
15:00+27e445927 0.0 1017287
18:00+27ese3465100 0.0 1017179
21:00+27se3370100 0.0 101752